Volver al catálogo

STARLINK-1560

ActivoComunicacionesVLEO
NORAD 46036·PAYLOAD·🇺🇸 United States

Lanzado Aug 7, 2020 desde Cape Canaveral Space Force Station

Loading…

Próximos Pases (próximas 24 horas)

TLE

ActualizadoSource: CelesTrak SupGP

Época: Sep 15, 2026, 02:03 UTC

1 46036C 20055K   26258.08590278  .00051066  00000+0  16418-2 0  2580
2 46036  53.1590 326.1017 0001100  83.9288 349.8240 15.31683630    11

Sigue STARLINK-1560 en tiempo real con AllMySat

Download on the App Store